Regional Weather Roundup
Issued by NWS

Home | Current Version | Previous Version | Text Only | Print | Product List | Glossary Off
Versions: 1 2 3 4 5 6 7 8 9 10 11 12 13 14 15 16 17 18 19 20 21 22 23 24 25 26 27 28 29 30 31 32 33 34 35 36 37 38 39 40 41 42 43 44 45 46 47 48 49 50

000
ASUS43 KLSX 280707
RWRMO

WEATHER SUMMARY FOR MISSOURI
NATIONAL WEATHER SERVICE SPRINGFIELD MO
200 AM CDT TUE APR 28 2015

NOTE: "FAIR" INDICATES FEW OR NO CLOUDS BELOW 12,000 FEET WITH NO
       SIGNIFICANT WEATHER AND/OR OBSTRUCTIONS TO VISIBILITY.
       CURRENT SKY AND/OR WEATHER CONDITIONS ARE NOT AVAILABLE FOR
       CHILLICOTHE AND FARMINGTON.

MOZ001>031-035>038-043-044-053-054-280800-
...NORTHERN AND WESTERN MISSOURI...

CITY           SKY/WX    TMP DP  RH WIND       PRES   REMARKS
KANSAS CTY INT PTCLDY    49  36  61 NE5       30.14S
KANSAS C DTWN  MOCLDY    53  36  52 CALM      30.13S
LEE`S SUMMIT   MOCLDY    50  36  58 N5        30.13S
ST JOSEPH      PTCLDY    45  37  73 CALM      30.15S
CHILLICOTHE      N/A     45  39  79 CALM      30.15F
KIRKSVILLE     CLEAR     42  40  92 CALM      30.15R

$$
MOZ066>068-077>081-088>096-101>105-280800-
...SOUTHWEST MISSOURI...

CITY           SKY/WX    TMP DP  RH WIND       PRES   REMARKS
SPRINGFIELD    PTCLDY    50  36  58 NE7       30.07S
JOPLIN         CLOUDY    51  38  60 NE5       30.07S

$$
MOZ032>034-039>042-045>050-055>058-069>072-280800-
...CENTRAL MISSOURI...

CITY           SKY/WX    TMP DP  RH WIND       PRES   REMARKS
COLUMBIA       CLEAR     47  37  68 NE6       30.11S
JEFFERSON CITY CLEAR     44  38  79 CALM      30.12R
ROLLA          CLEAR     44  36  73 NE6       30.08S
SEDALIA        CLEAR     50  38  63 NE5       30.13S
WHITEMAN AFB   PTCLDY    44  38  77 N3        30.11S
WARRENSBURG    MOCLDY    46  37  71 N5        30.12S
OSAGE BEACH    PTCLDY    46  36  66 NE3       30.10S

$$
MOZ051-052-059>065-280800-
...EAST CENTRAL MISSOURI...

CITY           SKY/WX    TMP DP  RH WIND       PRES   REMARKS
ST LOUIS INTL  PTCLDY    50  38  63 E5        30.12R
SPIRIT OF STL  CLEAR     42  39  89 CALM      30.12R
ST CHARLES     CLEAR     48  38  68 NE5       30.12R

$$
MOZ072>076-082>087-097>100-106>115-280800-
...SOUTH CENTRAL AND SOUTHEAST MISSOURI...

CITY           SKY/WX    TMP DP  RH WIND       PRES   REMARKS
CAPE GIRARDEAU PTCLDY    49  40  71 NE6       30.06S
FARMINGTON     CLEAR     45  37  76 CALM      30.12S
POPLAR BLUFF   PTCLDY    52  40  63 NE9       30.03F
WEST PLAINS    CLEAR     44  35  70 NE6       30.07R

$$


USA.gov is the U.S. government's official web portal to all federal, state and local government web resources and services.